Location: Unspecified
(0.0000°N, 0.0000°E)
Time: 05:02:02
(UTC-06:00)

CZ-3 Stage 3 - Visible Passes

Search period start: 18 December 2017 00:00
Search period end: 28 December 2017 00:00
Orbit: 418 x 34779 km, 31.0° (Epoch: 18 December)

Date Brightness Start Highest point End Pass type
(mag) Time Alt. Az. Time Alt. Az. Time Alt. Az.
18 Dec 5.6 14:44:42 10° W 14:50:48 13° WNW 14:53:05 12° NW visible
19 Dec 5.4 22:04:03 28° NNW 22:13:32 65° NE 07:37:07 10° E visible
21 Dec 5.6 14:36:05 10° W 14:41:22 12° WNW 14:44:13 10° NW visible
22 Dec 5.4 21:55:19 33° NNW 22:03:58 67° NE 07:28:02 10° E visible
24 Dec 5.6 14:27:34 10° WNW 14:31:54 12° WNW 14:34:41 10° NW visible
25 Dec 5.4 21:46:35 38° NNW 21:54:25 68° NE 07:18:56 10° E visible
27 Dec 5.6 14:19:11 10° WNW 14:22:27 11° WNW 14:24:46 10° NW visible
